Regional Weather Roundup
Issued by NWS

Home | Current Version | Previous Version | Text Only | Print | Product List | Glossary On
Versions: 1 2 3 4 5 6 7 8 9 10 11 12 13 14 15 16 17 18 19 20 21 22 23 24 25 26 27 28 29 30 31 32 33 34 35 36 37 38 39 40 41 42 43 44 45 46 47 48 49 50
873
ASUS46 KLOX 081313
RWRCA

SOUTHERN CALIFORNIA WEATHER ROUNDUP
NATIONAL WEATHER SERVICE OXNARD CALIFORNIA
500 AM PST MON FEB 08 2016

NOTE: "FAIR" INDICATES FEW OR NO CLOUDS BELOW 12,000 FEET WITH NO
SIGNIFICANT WEATHER AND/OR OBSTRUCTIONS TO VISIBILITY.

  -  STATIONS PRECEEDED BY AN ASTERISK (*) ARE NOT NWS OR FAA
     STATIONS AND ARE NOT SUBJECT TO NWS AND FAA QUALITY CONTROL.

CAZ041-042-087-081400-
LA AND ORANGE COUNTY COASTAL AREAS


CITY           SKY/WX    TMP DP  RH WIND       PRES   REMARKS
L.A. DOWNTOWN  CLEAR     53  36  52 CALM      30.10S
L.A. AIRPORT   CLEAR     55  32  41 CALM      30.10S
LONG BEACH     CLEAR     57  33  40 NW6       30.10S

CITY           SKY/WX    TMP DP  RH WIND       PRES   REMARKS
FULLERTON      CLEAR     57  30  35 NE3       30.09S
HAWTHORNE      CLEAR     54  35  48 CALM      30.11R
*LOS ALAMITOS  FAIR      70  26  18 NE13      30.09S
*REDONDO BEACH   N/A     52  31  45 CALM      30.11S
SANTA ANA      CLEAR     71  23  16 NE7       30.09S
STA MONICA APT CLEAR     60  28  29 CALM      30.10S
*STA MON PIER    N/A     69  28  22 NW9       30.03
*UCLA            N/A     70  19  14 N7        30.08F

$$

CAZ547-548-048-081400-
LA COUNTY VALLEYS AND INLAND EMPIRE


CITY           SKY/WX    TMP DP  RH WIND       PRES   REMARKS
BURBANK        CLEAR     72  19  13 CALM      30.11S
VAN NUYS       CLEAR     71  21  15 N15G23    30.13S

CITY           SKY/WX    TMP DP  RH WIND       PRES   REMARKS
CORONA AIRPORT SUNNY     71  24  17 SE12      30.16S
*CHATSWORTH      N/A     72  26  18 N18       30.13S
CHINO          CLEAR     74  20  13 E13G29    30.14R
*CLAREMONT       N/A     57  26  30 N2          N/A
MARCH AFB      CLEAR     63  21  20 N12G21    30.17S
*NORTHRIDGE      N/A     70  16  12 N6G14       N/A
ONTARIO        CLEAR     73  18  12 NE16G29   30.12R
*PASADENA        N/A     59  30  33 CALM        N/A
RIVERSIDE      CLEAR     70  20  15 N12G23    30.16S
SAN BERNARDINO NOT AVBL
*SAN GABRIEL     N/A     53  34  48 NW2       30.18S
*WHITEMAN AP   NOT AVBL
*WOODLAND HILL   N/A     70  19  14 N8          N/A

$$

CAZ054-055-081400-
LA AND SAN BERNARDINO COUNTY MOUNTAINS


CITY           SKY/WX    TMP DP  RH WIND       PRES   REMARKS
*ACTON           N/A     62  19  19 NW16G30     N/A
*BIG BEAR AIRP SUNNY     27  19  74 CALM      30.44S
SANDBERG       CLEAR     48  20  32 E30G38    30.33R

$$

CAZ028-029-059-060-099-081400-
ANTELOPE VALLEY AND SURROUNDING AREAS


CITY           SKY/WX    TMP DP  RH WIND       PRES   REMARKS
LANCASTER      CLEAR     33  24  69 W8        30.36R WCI  26
PALMDALE       CLEAR     43  23  45 NW7       30.35R

CITY           SKY/WX    TMP DP  RH WIND       PRES   REMARKS
29 PALMS       CLEAR     54  20  26 W13       30.40R
BARSTOW/DAGGET CLEAR     40  23  50 W5        30.36S
BISHOP         CLEAR     31  25  78 NW3       30.54R
CHINA LAKE     CLEAR     44  25  47 SW7       30.36R
EDWARDS AFB    CLEAR     45  22  39 N6        30.33S
MOJAVE         CLEAR     46  25  42 NE6       30.36R
NEEDLES        CLEAR     59  22  24 N21G28    30.29S
VICTORVILLE    CLEAR     37  21  52 CALM      30.36S

$$

CAZ039-040-081400-
VENTURA AND SANTA BARBARA COUNTY COAST


CITY           SKY/WX    TMP DP  RH WIND       PRES   REMARKS
CAMARILLO      CLEAR     73  21  14 E25G33    30.12R
NWS OXNARD       N/A     73  23  15 E13       30.10R
OXNARD AIRPORT CLEAR     75  22  13 E22G35    30.11R
*POINT MUGU    CLEAR     73  25  16 NE20G35   30.12R
SBA APT/GOLETA CLEAR     46  37  71 CALM      30.10S
*SANTA BARBARA   N/A     53  34  49 CALM      30.18S
*VENTURA         N/A     72  25  17 NE15      30.10S

$$

CAZ044-045-081400-
VENTURA COUNTY VALLEYS


CITY           SKY/WX    TMP DP  RH WIND       PRES   REMARKS
*SIMI VALLEY     N/A     69  26  20 NW18      30.10R
*WESTLAKE VILL   N/A     70  30  23 NE10      30.12R
*OJAI            N/A     42  36  78 CALM      30.10R
*FILLMORE        N/A     73  32  22 NE8       30.05S

$$

CAZ053-081400-
VENTURA COUNTY MOUNTAINS


CITY           SKY/WX    TMP DP  RH WIND       PRES   REMARKS
*LOCKWOOD VLY    N/A     45  19  36 E5          N/A
*ROSE VALLEY     N/A     41  28  60 MISG        N/A

$$

CAZ034-035-036-081400-
CENTRAL COAST AND SANTA YNEZ VALLEY


CITY           SKY/WX    TMP DP  RH WIND       PRES   REMARKS
SAN LUIS OBISP CLEAR     50  39  66 CALM      30.12R
SANTA MARIA    CLEAR     47  38  71 SE3       30.12S

CITY           SKY/WX    TMP DP  RH WIND       PRES   REMARKS
*CAL POLY SLO    N/A     52  39  62 SE3G9       N/A
*LOMPOC        CLEAR     45  34  65 E8        30.13R
*SANTA YNEZ    FAIR      43  36  75 CALM      30.15R

$$

CAZ037-038-051-081400-
SAN LUIS OBISPO COUNTY INTERIOR AND CUYAMA VALLEY


CITY           SKY/WX    TMP DP  RH WIND       PRES   REMARKS
*CUYAMA          N/A     46  31  56 SE5       30.19S
PASO ROBLES    CLEAR     40  38  93 CALM      30.21R

$$

CAZ032-033-061-081400-
SOUTHERN DESERTS


CITY           SKY/WX    TMP DP  RH WIND       PRES   REMARKS
BLYTHE         CLEAR     58  21  24 NW5       30.22R
IMPERIAL       CLEAR     51  29  42 SW7       30.18R
PALM SPRINGS   CLEAR     69  23  17 N14       30.24R
THERMAL        CLEAR     60  25  26 N8        30.19R

$$

ELSEWHERE ACROSS THE WESTERN UNITED STATES AND MEXICO


CITY           SKY/WX    TMP DP  RH WIND       PRES   REMARKS
DENVER, CO     CLOUDY    18  10  71 S9        30.33R WCI   7
GRAND CANYON,  PTCLDY    36  15  42 NE8       30.49S WCI  30
HONOLULU, HI   PTCLDY    61  54  77 CALM      30.02F
KAHULUI, MAUI  CLEAR     63  52  67 MISG      30.02F
LAKE TAHOE, CA CLEAR     22  20  92 CALM      30.51S
LAS VEGAS, NV  CLEAR     51  23  33 N13       30.41S
MAMMOTH LAKES, FAIR      25  18  74 CALM      30.59R
MEXICO CITY, M MOCLDY    39  25  56 E7        30.39R WCI  34
PHOENIX, AZ    PTCLDY    54  29  38 N3        30.18R
PORTLAND, OR   CLEAR     39  37  92 CALM      30.45S
RENO, NV       CLEAR     31  26  82 CALM      30.58R
SALT LAKE CITY PTCLDY    26  21  81 CALM      30.67R
SAN DIEGO, CA  CLEAR     55  32  41 CALM      30.08F
SAN FRANCISCO, CLEAR     52  45  77 S6        30.22R
SAN JOSE, CA   CLEAR     47  41  80 SE3       30.21S
SEATTLE, WA    CLEAR     40  37  89 N6        30.46S
TIJUANA, MEX   CLEAR     57  23  26 CALM      30.10F

$$

STATION/POSITION TIME  TEMP    WIND        PRES    VSBY  WAVE
                       AIR SEA DIR/SP/G                  HT/PER
                 (UTC) (F)     (DEG/KT/KT) (MB)    (MI)  (FT/S)
POINT ARGUELLO B NOT AVBL
WEST SANTA BARBA 1250   61 58   70/  6/  6 1018.7R         4/13
POINT CONCEPTION NOT AVBL
EAST SANTA BARBA 1200   59 58  360/  2/  4 1019.8F
SANTA MONICA BAY 1250   65 60   60/  8/ 10 1019.3R         3/11



USA.gov is the U.S. government's official web portal to all federal, state and local government web resources and services.